SCP
0 0 0 0 0 0 0 0 0 0 0 0 0 0 0 0 1 0 0 0 1 1 1 0 0 0 0 0 0 0 0 0 0 0 0 0 0 0 0 0 0 0 0 0
0 0 0 0 0 0 0 0 0 0 0 0 0 0 0 0 0 0 0 0 1 1 0 0 0 0 0 0 0 0 0 0 0 0 0 0 0 0 0 0 0 0 0 0
0 0 0 0 0 0 0 0 0 0 0 0 0 0 0 0 0 0 0 0 0 0 0 0 0 0 0 0 0 0 0 0 0 0 0 0 0 0 0 0 0 0 0 0
0 0 -0 0 0 0 0 0 0 0 0 0 0 0 0 0 0 0 0 0 0 0 0 0 0 0 0 0 0 0 0 0 0 0 0 0 0 0 0 0 0 0 0 0
-0 0 0 0 0 0 0 0 0 0 0 0 0 0 0 0 0 0 0 0 0 0 0 0 0 0 0 0 0 0 0 0 0 0 0 0 0 0 0 0 0 0 0 0
-0 0 0 0 0 0 0 0 0 0 0 0 -0 0 0 0 0 0 0 0 0 0 0 0 0 0 0 0 0 0 0 0 0 0 0 0 0 0 0 0 0 0 0 0
0 0 0 0 0 0 0 0 0 0 0 -0 0 0 0 0 0 0 0 0 0 0 0 0 0 0 0 0 0 0 0 0 0 0 0 0 0 0 0 0 0 0 0 0
-0 0 0 -0 0 0 0 0 0 0 0 0 0 0 0 0 0 0 0 0 0 0 0 0 0 0 0 0 0 0 0 0 0 0 0 0 0 0 0 0 0 0 0 0
0 0 0 0 0 0 0 0 0 0 0 0 0 0 0 0 0 0 0 0 0 0 0 0 0 0 0 0 0 0 0 0 0 0 0 0 0 0 0 0 0 0 0 0
-0 0 -0 0 0 0 0 0 0 0 0 0 0 -0 -0 0 0 0 0 0 0 0 0 0 0 0 0 0 0 -0 0 0 0 0 0 0 0 0 0 0 0 0 0 0
-0 0 0 0 0 0 0 0 0 0 0 -0 0 0 -0 -0 0 0 0 0 0 0 0 0 0 0 0 -0 -0 -0 -0 -0 0 0 0 0 0 0 0 0 0 0 0 0
-0 -0 0 0 0 0 0 0 0 0 0 -0 0 -0 0 0 0 0 0 0 0 0 0 0 0 0 -0 -0 -0 -0 -0 0 0 0 0 0 0 0 0 0 0 0 0 0
0 0 0 0 0 0 0 0 0 0 0 -0 -0 -0 -0 -0 -0 0 -0 -0 0 0 0 0 0 -0 0 0 -0 0 0 0 0 0 0 0 0 0 0 0 0 0 0 0
0 0 0 -0 0 0 0 0 0 0 0 0 -0 0 -0 -0 -0 0 0 0 0 0 0 0 -0 -0 -0 0 0 0 0 0 0 0 0 0 0 0 0 0 0 0 0 0
0 0 0 0 0 0 0 0 0 0 0 0 0 0 0 0 0 0 0 0 0 -0 -0 -0 -0 -0 0 0 0 0 0 0 0 0 0 0 0 0 0 0 0 0 0 0
0 0 0 0 0 0 0 0 0 0 0 0 0 0 0 0 0 0 0 0 0 -0 -0 -0 -0 -0 -0 0 0 0 0 0 0 0 0 0 0 0 0 0 0 0 0 0
0 0 0 0 0 0 0 0 0 0 0 0 0 0 0 0 0 0 0 0 0 -0 -0 -0 -0 0 0 0 0 0 0 0 0 0 0 0 0 0 0 0 0 0 0 0
0 0 0 0 0 0 0 0 0 0 0 0 0 0 0 0 0 0 0 0 0 0 0 0 0 0 0 0 0 0 0 0 0 0 0 0 0 0 0 0 0 0 0 0
0 0 0 0 0 0 0 0 0 0 0 0 0 0 0 0 0 0 0 0 0 0 0 0 0 0 0 0 0 0 0 0 0 0 0 0 0 0 0 0 0 0 0 0
0 0 0 0 0 0 0 0 0 0 0 0 0 0 0 0 0 0 0 0 0 0 0 0 0 0 0 0 0 0 0 0 0 0 0 0 0 0 0 0 0 0 0 0
0 0 0 0 0 0 0 0 0 0 0 0 0 0 0 0 0 0 0 0 0 0 0 0 0 0 0 0 0 0 0 0 0 0 0 0 0 0 0 0 0 0 0 0
0 0 0 0 0 0 0 0 0 0 0 0 0 0 0 0 0 0 0 0 0 0 0 0 0 0 0 0 0 0 0 0 0 0 0 0 0 0 0 0 0 0 0 0
0 0 0 0 0 0 0 0 0 0 0 0 0 0 0 0 0 0 0 0 0 0 0 0 0 0 0 0 0 0 0 0 0 0 0 0 0 0 0 0 0 0 0 0
0 0 0 0 0 0 0 0 0 0 0 0 0 0 0 0 0 0 0 0 0 0 0 0 0 0 0 0 0 0 0 0 0 0 0 0 0 0 0 0 0 0 0 0
0 0 0 0 0 0 0 0 0 0 0 0 0 0 0 0 0 0 0 0 0 0 0 0 0 0 0 0 0 0 0 0 0 0 0 0 0 0 0 0 0 0 0 0
0 0 0 0 0 0 0 0 0 0 0 0 0 0 0 0 0 0 0 0 0 0 0 0 0 0 0 0 0 0 0 0 0 0 0 0 0 0 0 0 0 0 0 0
-0 0 0 0 0 0 0 0 0 0 -0 -0 -0 -0 0 0 0 0 0 0 0 0 0 -0 0 0 0 0 0 0 0 0 0 0 0 0 0 0 0 0 0 0 0 0
Wind_Speed_500mb
14 1 8 16 21 18 18 7 9 14 8 13 13 15 21 27 19 11 30 34 36 39 41 45 51 51 46 44 39 35 34 32 30 34 38 38 32 21 25 13 11 16 14 16
7 4 15 16 16 17 16 5 9 5 12 13 10 14 21 23 27 27 15 28 35 45 56 55 54 54 52 46 35 23 17 23 31 37 48 35 28 30 21 21 15 14 13 12
4 1 17 18 20 16 10 12 6 5 20 16 12 17 22 19 20 24 28 43 44 51 58 56 55 50 43 41 38 32 31 38 47 44 44 38 31 26 18 13 13 13 7 7
9 8 20 18 17 16 14 5 5 2 8 15 20 22 22 19 13 26 40 45 53 58 57 57 65 58 54 53 55 63 63 55 53 49 41 33 20 15 11 8 6 4 2 6
8 10 11 15 25 12 12 13 24 11 15 22 28 25 24 17 21 31 41 52 56 61 74 77 73 63 56 56 56 59 58 49 39 32 29 26 22 15 12 9 7 3 2 9
11 7 3 16 28 19 9 10 28 21 16 19 28 10 5 14 29 38 49 56 62 68 76 80 70 61 62 60 57 55 49 45 35 26 22 18 16 11 12 8 8 9 13 16
7 9 10 26 27 10 15 9 37 27 8 24 9 16 39 31 36 39 47 55 61 67 75 72 60 53 55 56 52 50 45 38 33 23 20 20 11 10 10 14 13 13 15 14
8 5 6 42 17 14 22 36 29 28 17 34 37 39 39 39 41 43 46 48 51 62 67 60 50 50 58 52 46 36 33 31 28 24 22 22 17 19 18 17 16 15 15 15
9 6 14 22 25 30 39 36 23 12 38 42 47 41 41 43 42 48 54 59 62 65 64 56 48 39 47 48 44 40 30 25 28 25 25 24 24 23 18 16 14 15 16 13
16 13 32 17 39 42 36 38 24 31 38 44 53 44 44 49 48 55 59 63 60 62 61 57 48 42 40 42 34 30 32 31 27 22 25 22 22 20 18 16 16 19 17 17
8 10 22 20 44 59 29 24 24 34 40 49 54 48 45 49 51 47 51 54 50 47 45 48 43 40 37 36 34 33 29 30 29 23 21 21 23 24 24 25 20 18 20 17
5 14 12 27 39 44 23 10 21 34 37 42 46 51 53 48 54 50 43 42 39 37 40 42 41 39 36 33 32 32 32 28 25 23 20 20 22 28 32 31 30 30 27 19
14 24 24 20 34 34 10 13 23 29 36 46 44 49 55 62 52 45 37 38 38 38 38 40 39 38 33 33 32 29 29 27 25 23 21 19 17 14 12 29 32 32 30 27
18 22 14 8 23 29 6 20 28 31 36 39 46 51 53 57 48 43 42 40 41 41 39 39 39 37 34 34 32 30 31 35 25 21 20 18 17 16 17 17 15 15 27 28
18 23 30 27 19 7 15 35 40 39 42 43 46 59 53 51 46 42 40 40 41 41 42 41 41 39 36 35 35 32 28 25 24 22 21 21 18 18 18 18 16 15 14 21
33 35 28 19 8 15 19 30 36 43 43 47 55 53 50 49 46 42 41 42 46 46 42 42 42 39 35 33 31 28 28 35 27 22 21 19 18 19 18 18 18 17 18 18
35 33 20 13 12 21 24 26 33 42 48 50 58 54 52 54 51 47 41 38 40 41 41 40 42 35 31 29 26 26 25 24 29 21 20 20 20 20 20 19 20 20 25 31
27 31 31 23 19 23 27 30 37 47 55 56 63 56 57 58 60 52 46 43 44 44 46 46 40 32 30 27 24 24 22 20 20 21 21 21 21 22 21 21 20 20 18 24
20 12 6 17 23 28 31 36 42 54 62 66 60 60 61 58 56 53 49 45 50 53 50 42 40 35 32 33 27 24 21 20 20 21 23 25 22 21 21 20 19 19 19 20
17 10 1 13 21 25 31 33 38 47 58 64 64 66 61 55 53 52 46 46 42 48 46 45 34 32 33 35 33 23 22 21 20 20 20 19 19 20 22 23 20 19 19 20
12 8 8 12 21 25 29 34 45 58 62 55 56 55 53 54 53 51 48 46 50 45 44 39 33 31 27 31 27 21 20 20 20 20 18 19 20 18 19 18 17 18 18 19
6 5 11 17 25 33 35 43 55 65 60 55 43 43 49 45 47 44 35 49 52 46 41 33 29 30 29 31 22 20 20 20 20 19 19 18 17 16 16 16 16 16 16 17
6 11 15 24 34 43 48 55 55 54 48 44 42 40 40 42 41 47 52 53 51 47 35 34 31 27 26 22 21 21 20 20 18 18 18 17 16 14 14 13 13 12 12 14
17 21 26 35 43 51 56 51 53 49 46 39 33 34 39 41 38 43 55 54 47 42 38 34 29 24 24 20 19 20 20 18 17 17 18 19 14 13 13 11 10 11 11 12
20 29 36 39 43 44 44 44 45 44 41 34 33 32 33 35 50 58 54 51 45 41 38 32 27 26 21 20 19 19 18 16 16 15 15 15 12 10 9 7 7 7 7 8
22 29 27 30 37 37 36 39 43 41 38 37 33 32 32 39 50 48 53 51 43 36 35 32 26 23 22 20 19 18 16 15 13 11 12 12 10 9 8 6 5 5 3 2
31 32 33 32 29 28 26 28 34 36 37 40 41 40 40 47 49 51 50 46 41 37 33 29 23 20 19 18 17 16 15 13 10 8 8 8 7 5 4 3 1 1 1 3
Wind_Direction_500mb
324 71 229 204 190 193 221 304 273 70 81 84 58 33 14 4 15 107 143 147 149 149 143 149 151 148 151 150 151 149 157 167 173 178 176 159 143 136 135 131 203 248 250 264
272 262 219 229 204 197 222 188 254 323 101 85 66 50 43 28 34 44 107 137 134 134 150 151 150 149 143 138 145 157 163 167 163 165 158 150 144 138 161 188 212 228 246 262
270 181 176 214 215 196 199 234 297 233 76 121 81 57 34 33 52 67 78 112 131 142 151 151 145 133 129 128 120 117 120 127 136 139 143 143 149 162 177 201 225 252 265 316
298 292 184 64 15 270 232 250 131 25 94 82 104 85 54 44 73 100 110 125 136 143 144 141 132 130 125 123 129 133 134 138 146 145 145 148 168 154 157 190 217 224 285 341
310 305 123 84 26 357 343 94 13 341 102 124 127 102 48 57 111 117 124 133 138 145 144 139 136 132 134 135 139 142 141 136 132 141 150 140 131 134 151 152 157 194 84 50
327 295 24 17 348 341 215 180 21 349 146 172 173 169 116 114 128 127 130 136 142 145 148 145 142 144 140 139 139 135 133 132 134 133 128 126 131 137 131 137 112 90 61 48
293 261 119 353 346 313 225 29 339 337 251 183 181 66 139 140 130 134 135 138 143 147 149 144 140 141 137 136 131 128 128 127 127 129 124 116 116 140 128 96 85 74 68 62
283 251 82 354 13 17 329 320 318 306 184 110 115 117 126 134 133 134 133 137 146 147 142 139 139 139 129 127 119 120 130 132 129 120 116 118 134 99 89 88 87 82 71 52
326 29 346 61 20 346 337 326 322 94 124 136 135 131 130 130 130 133 133 132 133 132 130 129 130 127 132 127 131 135 134 130 118 114 111 99 96 91 78 79 85 76 59 41
315 4 334 271 1 351 342 334 315 154 143 144 138 134 132 137 135 132 134 134 129 128 127 126 128 130 130 129 132 136 130 125 119 115 98 96 86 85 90 78 64 64 55 38
302 10 335 351 352 351 346 5 103 137 147 143 139 139 137 136 137 133 126 125 124 120 122 122 126 127 123 123 127 125 120 112 108 114 112 109 113 97 76 81 89 80 70 42
339 357 323 320 335 348 350 51 123 133 138 139 144 143 143 139 138 135 129 121 113 123 122 120 118 118 122 125 123 118 116 114 122 123 118 106 95 84 78 70 68 69 74 77
295 318 320 310 332 336 333 116 128 141 142 139 143 145 147 140 139 134 126 127 130 126 122 121 123 121 126 127 123 120 119 120 123 119 119 113 101 83 62 60 61 62 64 68
306 309 305 323 307 311 205 150 136 137 138 141 143 145 141 140 133 132 133 135 132 131 126 124 124 123 123 125 124 126 131 127 117 116 108 101 99 94 92 86 72 39 54 60
296 299 299 300 301 234 157 153 138 141 142 142 144 148 142 135 133 136 135 134 131 131 130 131 126 122 123 124 123 120 117 118 117 116 119 112 100 95 92 89 85 77 55 36
302 298 297 289 266 198 172 161 148 150 149 149 149 140 140 139 137 134 137 140 143 136 135 134 129 128 130 130 127 125 134 132 118 110 105 108 106 103 98 93 89 76 61 54
298 288 275 265 231 198 181 169 161 157 153 149 144 144 144 139 137 136 139 140 135 135 134 135 130 131 130 128 128 127 122 117 122 115 116 113 108 103 99 96 91 78 65 64
305 286 254 251 226 206 187 174 170 165 157 158 159 148 148 146 142 140 139 138 135 136 138 141 135 133 134 131 130 128 122 121 122 116 111 110 106 102 99 96 91 86 72 49
348 350 224 207 197 205 190 180 172 171 170 170 153 152 154 151 147 143 141 141 139 137 138 137 136 130 133 135 121 127 127 121 118 116 110 96 101 102 98 94 88 79 70 60
5 3 185 183 185 199 190 189 184 176 168 161 158 152 151 149 145 137 134 132 138 142 141 139 136 135 134 128 121 129 126 120 115 112 114 107 104 97 90 96 87 76 65 54
20 47 107 151 164 175 182 176 174 169 162 159 155 151 148 143 142 144 141 134 141 144 141 140 143 135 136 124 117 124 120 116 113 108 112 108 102 107 102 92 83 73 65 52
18 84 121 148 153 150 157 162 163 156 151 152 155 150 147 141 133 127 134 146 144 145 142 139 144 144 137 117 127 127 122 118 119 120 118 116 113 109 102 94 84 74 64 54
106 132 139 145 146 140 141 144 146 144 142 142 150 145 141 141 144 140 138 147 146 149 143 151 149 145 138 123 127 125 122 121 122 121 119 117 113 109 103 98 82 73 66 52
116 113 123 136 140 140 137 140 144 145 142 145 141 146 144 138 136 149 148 146 147 150 148 147 145 145 127 126 130 126 124 123 123 125 129 116 112 108 105 97 87 73 56 51
141 140 137 137 138 135 138 141 139 134 142 138 135 136 142 147 149 147 149 148 148 146 140 137 136 134 128 131 133 129 127 130 131 129 131 128 131 143 137 128 125 111 66 56
145 150 140 136 131 129 136 144 143 144 141 138 144 143 142 145 150 149 150 148 145 145 144 141 137 134 132 129 130 136 144 138 134 161 166 164 160 151 147 139 142 130 104 44
122 122 126 126 131 137 143 149 150 153 153 151 146 148 149 148 151 150 151 151 152 155 156 148 141 141 138 136 131 132 135 146 149 154 156 159 163 165 154 160 166 172 227 297
Wind_Speed_850mb
14 1 8 16 21 18 18 7 9 14 8 13 13 15 21 27 19 11 30 34 36 39 41 45 51 51 46 44 39 35 34 32 30 34 38 38 32 21 25 13 11 16 14 16
7 4 15 16 16 17 16 5 9 5 12 13 10 14 21 23 27 27 15 28 35 45 56 55 54 54 52 46 35 23 17 23 31 37 48 35 28 30 21 21 15 14 13 12
4 1 17 18 20 16 10 12 6 5 20 16 12 17 22 19 20 24 28 43 44 51 58 56 55 50 43 41 38 32 31 38 47 44 44 38 31 26 18 13 13 13 7 7
9 8 20 18 17 16 14 5 5 2 8 15 20 22 22 19 13 26 40 45 53 58 57 57 65 58 54 53 55 63 63 55 53 49 41 33 20 15 11 8 6 4 2 6
8 10 11 15 25 12 12 13 24 11 15 22 28 25 24 17 21 31 41 52 56 61 74 77 73 63 56 56 56 59 58 49 39 32 29 26 22 15 12 9 7 3 2 9
11 7 3 16 28 19 9 10 28 21 16 19 28 10 5 14 29 38 49 56 62 68 76 80 70 61 62 60 57 55 49 45 35 26 22 18 16 11 12 8 8 9 13 16
7 9 10 26 27 10 15 9 37 27 8 24 9 16 39 31 36 39 47 55 61 67 75 72 60 53 55 56 52 50 45 38 33 23 20 20 11 10 10 14 13 13 15 14
8 5 6 42 17 14 22 36 29 28 17 34 37 39 39 39 41 43 46 48 51 62 67 60 50 50 58 52 46 36 33 31 28 24 22 22 17 19 18 17 16 15 15 15
9 6 14 22 25 30 39 36 23 12 38 42 47 41 41 43 42 48 54 59 62 65 64 56 48 39 47 48 44 40 30 25 28 25 25 24 24 23 18 16 14 15 16 13
16 13 32 17 39 42 36 38 24 31 38 44 53 44 44 49 48 55 59 63 60 62 61 57 48 42 40 42 34 30 32 31 27 22 25 22 22 20 18 16 16 19 17 17
8 10 22 20 44 59 29 24 24 34 40 49 54 48 45 49 51 47 51 54 50 47 45 48 43 40 37 36 34 33 29 30 29 23 21 21 23 24 24 25 20 18 20 17
5 14 12 27 39 44 23 10 21 34 37 42 46 51 53 48 54 50 43 42 39 37 40 42 41 39 36 33 32 32 32 28 25 23 20 20 22 28 32 31 30 30 27 19
14 24 24 20 34 34 10 13 23 29 36 46 44 49 55 62 52 45 37 38 38 38 38 40 39 38 33 33 32 29 29 27 25 23 21 19 17 14 12 29 32 32 30 27
18 22 14 8 23 29 6 20 28 31 36 39 46 51 53 57 48 43 42 40 41 41 39 39 39 37 34 34 32 30 31 35 25 21 20 18 17 16 17 17 15 15 27 28
18 23 30 27 19 7 15 35 40 39 42 43 46 59 53 51 46 42 40 40 41 41 42 41 41 39 36 35 35 32 28 25 24 22 21 21 18 18 18 18 16 15 14 21
33 35 28 19 8 15 19 30 36 43 43 47 55 53 50 49 46 42 41 42 46 46 42 42 42 39 35 33 31 28 28 35 27 22 21 19 18 19 18 18 18 17 18 18
35 33 20 13 12 21 24 26 33 42 48 50 58 54 52 54 51 47 41 38 40 41 41 40 42 35 31 29 26 26 25 24 29 21 20 20 20 20 20 19 20 20 25 31
27 31 31 23 19 23 27 30 37 47 55 56 63 56 57 58 60 52 46 43 44 44 46 46 40 32 30 27 24 24 22 20 20 21 21 21 21 22 21 21 20 20 18 24
20 12 6 17 23 28 31 36 42 54 62 66 60 60 61 58 56 53 49 45 50 53 50 42 40 35 32 33 27 24 21 20 20 21 23 25 22 21 21 20 19 19 19 20
17 10 1 13 21 25 31 33 38 47 58 64 64 66 61 55 53 52 46 46 42 48 46 45 34 32 33 35 33 23 22 21 20 20 20 19 19 20 22 23 20 19 19 20
12 8 8 12 21 25 29 34 45 58 62 55 56 55 53 54 53 51 48 46 50 45 44 39 33 31 27 31 27 21 20 20 20 20 18 19 20 18 19 18 17 18 18 19
6 5 11 17 25 33 35 43 55 65 60 55 43 43 49 45 47 44 35 49 52 46 41 33 29 30 29 31 22 20 20 20 20 19 19 18 17 16 16 16 16 16 16 17
6 11 15 24 34 43 48 55 55 54 48 44 42 40 40 42 41 47 52 53 51 47 35 34 31 27 26 22 21 21 20 20 18 18 18 17 16 14 14 13 13 12 12 14
17 21 26 35 43 51 56 51 53 49 46 39 33 34 39 41 38 43 55 54 47 42 38 34 29 24 24 20 19 20 20 18 17 17 18 19 14 13 13 11 10 11 11 12
20 29 36 39 43 44 44 44 45 44 41 34 33 32 33 35 50 58 54 51 45 41 38 32 27 26 21 20 19 19 18 16 16 15 15 15 12 10 9 7 7 7 7 8
22 29 27 30 37 37 36 39 43 41 38 37 33 32 32 39 50 48 53 51 43 36 35 32 26 23 22 20 19 18 16 15 13 11 12 12 10 9 8 6 5 5 3 2
31 32 33 32 29 28 26 28 34 36 37 40 41 40 40 47 49 51 50 46 41 37 33 29 23 20 19 18 17 16 15 13 10 8 8 8 7 5 4 3 1 1 1 3
Wind_Direction_850mb
324 71 229 204 190 193 221 304 273 70 81 84 58 33 14 4 15 107 143 147 149 149 143 149 151 148 151 150 151 149 157 167 173 178 176 159 143 136 135 131 203 248 250 264
272 262 219 229 204 197 222 188 254 323 101 85 66 50 43 28 34 44 107 137 134 134 150 151 150 149 143 138 145 157 163 167 163 165 158 150 144 138 161 188 212 228 246 262
270 181 176 214 215 196 199 234 297 233 76 121 81 57 34 33 52 67 78 112 131 142 151 151 145 133 129 128 120 117 120 127 136 139 143 143 149 162 177 201 225 252 265 316
298 292 184 64 15 270 232 250 131 25 94 82 104 85 54 44 73 100 110 125 136 143 144 141 132 130 125 123 129 133 134 138 146 145 145 148 168 154 157 190 217 224 285 341
310 305 123 84 26 357 343 94 13 341 102 124 127 102 48 57 111 117 124 133 138 145 144 139 136 132 134 135 139 142 141 136 132 141 150 140 131 134 151 152 157 194 84 50
327 295 24 17 348 341 215 180 21 349 146 172 173 169 116 114 128 127 130 136 142 145 148 145 142 144 140 139 139 135 133 132 134 133 128 126 131 137 131 137 112 90 61 48
293 261 119 353 346 313 225 29 339 337 251 183 181 66 139 140 130 134 135 138 143 147 149 144 140 141 137 136 131 128 128 127 127 129 124 116 116 140 128 96 85 74 68 62
283 251 82 354 13 17 329 320 318 306 184 110 115 117 126 134 133 134 133 137 146 147 142 139 139 139 129 127 119 120 130 132 129 120 116 118 134 99 89 88 87 82 71 52
326 29 346 61 20 346 337 326 322 94 124 136 135 131 130 130 130 133 133 132 133 132 130 129 130 127 132 127 131 135 134 130 118 114 111 99 96 91 78 79 85 76 59 41
315 4 334 271 1 351 342 334 315 154 143 144 138 134 132 137 135 132 134 134 129 128 127 126 128 130 130 129 132 136 130 125 119 115 98 96 86 85 90 78 64 64 55 38
302 10 335 351 352 351 346 5 103 137 147 143 139 139 137 136 137 133 126 125 124 120 122 122 126 127 123 123 127 125 120 112 108 114 112 109 113 97 76 81 89 80 70 42
339 357 323 320 335 348 350 51 123 133 138 139 144 143 143 139 138 135 129 121 113 123 122 120 118 118 122 125 123 118 116 114 122 123 118 106 95 84 78 70 68 69 74 77
295 318 320 310 332 336 333 116 128 141 142 139 143 145 147 140 139 134 126 127 130 126 122 121 123 121 126 127 123 120 119 120 123 119 119 113 101 83 62 60 61 62 64 68
306 309 305 323 307 311 205 150 136 137 138 141 143 145 141 140 133 132 133 135 132 131 126 124 124 123 123 125 124 126 131 127 117 116 108 101 99 94 92 86 72 39 54 60
296 299 299 300 301 234 157 153 138 141 142 142 144 148 142 135 133 136 135 134 131 131 130 131 126 122 123 124 123 120 117 118 117 116 119 112 100 95 92 89 85 77 55 36
302 298 297 289 266 198 172 161 148 150 149 149 149 140 140 139 137 134 137 140 143 136 135 134 129 128 130 130 127 125 134 132 118 110 105 108 106 103 98 93 89 76 61 54
298 288 275 265 231 198 181 169 161 157 153 149 144 144 144 139 137 136 139 140 135 135 134 135 130 131 130 128 128 127 122 117 122 115 116 113 108 103 99 96 91 78 65 64
305 286 254 251 226 206 187 174 170 165 157 158 159 148 148 146 142 140 139 138 135 136 138 141 135 133 134 131 130 128 122 121 122 116 111 110 106 102 99 96 91 86 72 49
348 350 224 207 197 205 190 180 172 171 170 170 153 152 154 151 147 143 141 141 139 137 138 137 136 130 133 135 121 127 127 121 118 116 110 96 101 102 98 94 88 79 70 60
5 3 185 183 185 199 190 189 184 176 168 161 158 152 151 149 145 137 134 132 138 142 141 139 136 135 134 128 121 129 126 120 115 112 114 107 104 97 90 96 87 76 65 54
20 47 107 151 164 175 182 176 174 169 162 159 155 151 148 143 142 144 141 134 141 144 141 140 143 135 136 124 117 124 120 116 113 108 112 108 102 107 102 92 83 73 65 52
18 84 121 148 153 150 157 162 163 156 151 152 155 150 147 141 133 127 134 146 144 145 142 139 144 144 137 117 127 127 122 118 119 120 118 116 113 109 102 94 84 74 64 54
106 132 139 145 146 140 141 144 146 144 142 142 150 145 141 141 144 140 138 147 146 149 143 151 149 145 138 123 127 125 122 121 122 121 119 117 113 109 103 98 82 73 66 52
116 113 123 136 140 140 137 140 144 145 142 145 141 146 144 138 136 149 148 146 147 150 148 147 145 145 127 126 130 126 124 123 123 125 129 116 112 108 105 97 87 73 56 51
141 140 137 137 138 135 138 141 139 134 142 138 135 136 142 147 149 147 149 148 148 146 140 137 136 134 128 131 133 129 127 130 131 129 131 128 131 143 137 128 125 111 66 56
145 150 140 136 131 129 136 144 143 144 141 138 144 143 142 145 150 149 150 148 145 145 144 141 137 134 132 129 130 136 144 138 134 161 166 164 160 151 147 139 142 130 104 44
122 122 126 126 131 137 143 149 150 153 153 151 146 148 149 148 151 150 151 151 152 155 156 148 141 141 138 136 131 132 135 146 149 154 156 159 163 165 154 160 166 172 227 297